Hamilton, OH

9:05 PM EDT on April 25, 2017 (GMT -0400)
Butler County Regional

Weather History for KHAO - March, 2013

Change the Weather History Date:

Sunday, March 10, 2013

  Actual Average (KLUK) Record (KLUK)
Temperature  
Mean Temperature 59 °F -  
Max Temperature 70 °F 52 °F 81 °F (2009)
Min Temperature 48 °F 31 °F 13 °F (1984)
Degree Days  
Heating Degree Days 6    
Growing Degree Days 9 (Base 50)    
Moisture  
Dew Point 34 °F    
Average Humidity 40    
Maximum Humidity 62    
Minimum Humidity 24    
Precipitation  
Precipitation 0.06 in - - ()
Sea Level Pressure  
Sea Level Pressure 29.96 in    
Wind  
Wind Speed 5 mph (SSE)    
Max Wind Speed 14 mph    
Max Gust Speed 29 mph    
Visibility 10 miles    
Events Rain    
Averages and records for this station are not official NWS values.
T = Trace of Precipitation, MM = Missing Value Source: NWS Daily Summary

Daily Weather History Graph

Daily Weather History Graph

Search for Another Location

Airport or City:

Trip Planner

Search our weather history database for the weather conditions in past years. The results will help you decide how hot, cold, wet, or windy it might be!

Date:

Astronomy

Mar. 10, 2013 Rise Set
Actual Time 7:56 AM EDT 7:40 PM EDT
Civil Twilight 7:30 AM EDT 8:06 PM EDT
Nautical Twilight 6:59 AM EDT 8:38 PM EDT
Astronomical Twilight 6:27 AM EDT 9:09 PM EDT
Moon 6:56 AM EDT (3/10) 6:47 PM EDT (3/10)
Length of Visible Light 12h 36m
Length of Day
11h 43m
Waning Crescent, 2% of the Moon is Illuminated
Mar 10
Waning Crescent
Mar 11
New
Mar 19
First Quarter
Mar 27
Full
Apr 3
Last Quarter

Hourly Weather History & Observations

Time (EDT) Temp. Dew Point Humidity Pressure Visibility Wind Dir Wind Speed Gust Speed Precip Events Conditions
12:53 AM 54.0 °F 32.0 °F 43% 30.02 in 10.0 mi SE 4.6 mph - 0.00 in Rain Light Rain
1:53 AM 55.0 °F 33.1 °F 43% 30.03 in 10.0 mi Calm Calm - 0.00 in   Mostly Cloudy
3:53 AM 54.0 °F 32.0 °F 43% 30.01 in 10.0 mi Variable 5.8 mph - N/A   Clear
4:53 AM 51.1 °F 33.1 °F 50% 30.00 in 10.0 mi Calm Calm - N/A   Clear
5:53 AM 48.9 °F 33.1 °F 54% 30.01 in 10.0 mi East 3.5 mph - N/A   Clear
6:53 AM 48.9 °F 34.0 °F 56% 30.02 in 10.0 mi East 3.5 mph - N/A   Clear
8:53 AM 50.0 °F 34.0 °F 54% 30.05 in 10.0 mi Calm Calm - N/A   Partly Cloudy
9:53 AM 54.0 °F 36.0 °F 51% 30.04 in 10.0 mi SE 3.5 mph - N/A   Mostly Cloudy
10:53 AM 59.0 °F 33.1 °F 38% 30.03 in 10.0 mi South 8.1 mph 20.7 mph N/A   Clear
11:53 AM 63.0 °F 34.0 °F 34% 30.03 in 10.0 mi SSW 8.1 mph - N/A   Clear
12:53 PM 64.9 °F 33.1 °F 31% 30.01 in 10.0 mi SSW 11.5 mph 20.7 mph N/A   Clear
1:53 PM 64.9 °F 33.1 °F 31% 29.99 in 10.0 mi SSW 13.8 mph 19.6 mph N/A   Clear
2:53 PM 66.9 °F 34.0 °F 30% 29.96 in 10.0 mi Variable 6.9 mph - N/A   Clear
3:53 PM 68.0 °F 32.0 °F 26% 29.93 in 10.0 mi South 11.5 mph 18.4 mph N/A   Clear
4:53 PM 70.0 °F 30.9 °F 24% 29.91 in 10.0 mi South 9.2 mph 20.7 mph N/A   Clear
5:53 PM 68.0 °F 30.9 °F 25% 29.89 in 10.0 mi SSE 8.1 mph 20.7 mph N/A   Clear
6:53 PM 66.0 °F 32.0 °F 28% 29.87 in 10.0 mi SSE 4.6 mph - N/A   Clear
7:53 PM 64.9 °F 32.0 °F 29% 29.87 in 10.0 mi SSE 4.6 mph - N/A   Clear
8:53 PM 64.9 °F 32.0 °F 29% 29.86 in 10.0 mi Variable 5.8 mph - N/A   Partly Cloudy
9:53 PM 64.0 °F 33.1 °F 31% 29.84 in 10.0 mi SSE 4.6 mph - N/A   Mostly Cloudy
10:53 PM 63.0 °F 39.0 °F 41% 29.88 in 10.0 mi South 12.7 mph 28.8 mph 0.00 in Rain Light Rain
11:53 PM 57.0 °F 44.1 °F 62% 29.87 in 9.0 mi South 6.9 mph - 0.04 in Rain Light Rain
12:53 AM 57.0 °F 44.1 °F 62% 29.87 in 8.0 mi SSW 8.1 mph 17.3 mph 0.02 in Rain Light Rain